NSR Permit Applications

Overview

Below is a list of current NSR Permit Applications by type: Popular Searches, PSD, Construction/Modification, Administrative Updates, Relocation, Temporary, General Permits, and Permit Determinations. We have them listed in descending order based on date received.

Expand a section to view details on permits of that particular type.

Notice: These permit applications are only available through our database. Please be sure to read the directions below carefully.

Document Database

Our document database, Application Xtender (AX), allows you to view files for any of the listed sources.

Application Xtender Instructions

Credentials

  • Username: DEP
  • Password: DEP

Once authenticated, click on PERMITSAIR and you can search by any of the parameters listed. If you know the permit number, you may enter it into the SECONDARY ID NUMBER field. Usually, the only file available to view will be the permit application. However, if the permit application is open for public comment, then there may also be an engineering evaluation or a draft permit available to view.

Please note that any document denoted with an asterisk (*) will link to Application Xtender. Please use the instructions above to login.

Permit Number Facility ID Company Name; Location Permit Type Last Day to Comment Permit Writer Documents
13-3509 073-00040 West Virginia Methanol, Inc.; Pleasants County Construction 05/07/2021 Kessler, Joe
14-0038 061-00134 Mountain State Clean Energy, LLC; Maidsville Construction 11/01/2021 Andrews, Ed
13-3495 061-00134 Longview Power, LLC; Maidsville Construction 11/9/2020 Andrews, Ed
14-0039 053-00085 Nucor Steel West Virginia, LLC; Nucor Steel West Virginia Construction 04/29/2022 Kessler, Joe


Permit Number Facility ID Company Name; Location Permit Type Date Received Last Day to Comment Permit Writer
14-0038 061-00134 Mountain State Clean Energy, LLC; Maidsville Construction 12/10/2019 11/01/2021 Andrews, Ed
14-0039 053-00085 Nucor Steel West Virginia, LLC; Nucor Steel West Virginia Construction 01/21/2022 04/29/2022 Kessler, Joe


Permit Number Facility ID Company Name; Location Permit Type Date Received Last Day to Comment Permit Writer
13-3460 029-00083 Mountaineer Metal Management, LLC; Jimmy Carey Plant Construction 06/17/2019 Kessler, Joe
13-2707C 057-00046 Lumber & Things, Inc.; Keyser  Modification 01/11/2021  06/09/2022 Pursley, Steve
13-2234B 007-00100 Columbia Gas Transmission, LLC; Frametown Compressor Station Modification 05/03/2021 11/12/2021 Roberts, Dan
13-1397C 033-00038 Federal Bureau of Investigation; Clarksburg Site Modification 05/11/2021 03/10/2022 Pursley, Steve
13-3342A 061-00041 WVU Hospitals, Inc.; Ruby Memorial Hospital Modification 06/24/2021 11/01/2021 Legg, John
13-3530 051-00317 McElroy Green Marketing, LLC; B North #2 Flare Construction 06/28/2021 12/06/2021 Kessler, Joe
13-2722A 003-00112 Chem-Pak, Inc.; Martinsburg Facility Modification 07/02/2021 10/22/2021 Andrews, Ed
13-1361I 067-00023 Columbia West Virginia Corporation; Craigsville Modification 07/30/2021 11/8/2021 Williams, Jerry
13-2087G 039-00049 Columbia Gas Transmission, LLC; Coco Compressor Station Modification 08/04/2021 11/8/2021 Williams, Jerry
13-3532 109-00244 Consol Energy Inc.; Itmann Preparation Plant Construction 08/06/2021 11/8/2021 Martin, Lee
13-3533 061-00262 Marion Energy Partners LLC; Science Facility Construction 08/10/2021 12/13/2021 Andrews, ED
13-3534 057-00011 Alliant Techsystems Operations LLC; Allegany Ballistics Lab Construction 08/31/2021 01/06/2022 Williams, Jerry
13-1564D 035-00005 SDR Plastics, Inc.; Ravenswood Modification 09/03/2021 Williams, Jerry
13-2365N 107-00182 The Chemours Company FC, LLC; Washington Works Modification 09/07/2021 12/08/2021 Carney, Jonathan
13-3535 065-00001 U.S. Silica Company; Berkeley Springs Quarry Construction 09/20/2021 11/19/2021 Martin, Lee
13-2694F 079-00046 Cranberry Pipeline Corporation; Heizer Station Modification 09/27/2021 12/23/2021 Williams, Jerry
13-1220D 061-00061 SI Group USA (USAA), LLC; Morgantown Modification 10/06/2021 03/07/2022 Kessler, Joe
13-272B 003-00112 Chem-Pak, inc.; Martinsburg Modification 10/11/2021 01/12/2022 Andrews, Ed
13-3459B 001-00005 Wolf Run Mining LLC; Sentinel Facility - Leer South Modification 10/19/2021 03/25/2022 Pursley, Steve
13-2818K 051-00125 MarkWest Liberty Midstream and Resources, LLC; Majorsville Gas Plant Modification 10/27/2021 01/21/2022 Williams, Jerry
13-2656I 051-00113 CertainTeed Gypsum West Virginia, Inc.; Moundsville Modification 11/01/2021 Pursley, Steve
13-1999H 039-00009 MPLX Terminals, LLC; Charleston Modification 11/03/2021 03/28/2022 Kessler, Joe
13-2557E 039-00483 MarkWest Hydrocarbon, L.L.C; Cobb Dewpoint Control Plant Modification 11/04/2021 Williams, Jerry
13-3536 029-00086 Greco Funeral Service, Inc.; FT III Cremation Unit Construction 11/10/2021 01/20/2022 Legg, John
13-3537 107-00202 Assured Cremation Services, LLC; Parkersburg Construction 11/16/2021 01/28/2022 Legg, John
13-1650U 053-00054 APG Polytech, LLC, Apple Grove Plant Modification 11/19/2021 03/07/2022 Carney, Jonathan
13-3548 033-00290 Baker Hughes Oilfield Operations, LLC; Bridgeport Construction 11/22/2021 05/09/2022 Pursley, Steve
13-3538 049-00213 EQT Production Company; ACNR Intake Facility Construction 11/22/2021 02/25/2022 Williams, Jerry
13-3183A 103-00093 EQT Production Company; NMA 11 Well Pad (Stone) Modification 11/23/2021 03/04/2022 Williams, Jerry
13-3192A 103-00094 EQT Production Company; NMA 8 Well Pad (ZMBG) Modification 11/23/2021 03/04/2022 Williams, Jerry
13-1531B 069-00018 Swisher International; Wheeling Modification 12/01/2021 04/04/2022 Williams, Jerry
13-2616A 081-00180 D&R Properties WV LLC; Mt. Hope Facility Modification 12/06/2021 04/14/2022 Andrews, Ed
13-3539 025-00127 Keystone Concrete LLC, AMCON Construction 12/08/2021 01/28/2022 Martin, Lee
13-3196A 103-00084 EQT Production Company, NMA 6 Well Pad (Lemons) Construction 12/09/2021 03/18/2022 Williams, Jerry
13-3540 103-00085 EQT Production Company, NMA 10 Well Pad (Pribble) Construction 12/09/2021 03/18/2022 Williams, Jerry
13-3541 103-00085 EQT Production Company, Mason Conlon Pad Construction 12/09/2021 03/18/2022 Williams, Jerry
13-2896J 051-00142 Blue Racer Midstream, LLC; Natrium Extraction & Fractionation Plant Modification 12/16/2021 04/04/2022 Kessler, Joe
13-3191A 103-00088 EQT Production Company; Maury Pad Modification 12/16/2021 03/18/2022 Williams, Jerry
13-3193B 103-00089 EQT Production Company; Weekley Modification 12/20/2021 03/25/2022 Williams, Jerry
13-3027A 103-00061 EQT Production Company; Nice Station Modification 12/29/2021 04/08/2022 Williams, Jerry
13-3431D 077-00017 Columbia Gas Transmission, LLC; Terra Alta Compressor Station Modification 01/07/2022 04/25/2022 Williams, Jerry
13-3542 051-00144 AES Drilling Fluids, LLC; Benwood Construction 01/11/2022 06/08/2022 Andrews, Ed
13-3543 061-00265 Northeast Natural Energy LLC; MIP M & R Station Construction 01/11/2022 04/11/2022 Kees, Roy
13-3544 061-00266 Northeast Natural Energy LLC; Statler M&R Station Construction 01/11/2022 04/11/2022 Kees, Roy
13-3545 033-00289 McElroy Green Marketing; Harrison Co Flare #1 Construction 01/31/2022 04/14/2022 Andrews, Ed
13-3546 035-00003 Columbia Gas Transmission; Ripley Compressor Station Construction 02/01/2022 06/16/2022 Williams, Jerry
13-2840E 039-00003 Union Carbide Corporation; South Charleston Modification 02/10/2022 05/06/2022 Carney, Jonathan
13-2410F 009-00012 Trivium Packaging USA, Inc; Weirton Modification 02/14/2022 Andrews, Ed
13-2826P 051-00127 Williams Ohio Valley Midstream LLC; Ft. Beeler Gas Plant Modification 02/14/2022 04/04/2022 Williams, Jerry
13-3361C 051-00232 HG Energy II Appalachia, LLC; Moundsville 6 Modification 02/21/2022 05/06/2022 Williams, Jerry
13-3547 061-00268 Keyrock Environment LLC; Perkey-3 BBH-150 Construction 02/25/2022 04/29/2022 Andrews, Ed
13-3351D 039-00669 US Methanol LLC; Liberty ONE Methanol Plant Modification 03/02/2022 04/21/2022 Kessler, Joe
13-3200B 079-00183 FLSmidth, Inc.; Winfield Manufacturing Plant Modification 03/07/2022 05/31/2022 Carney, Jonathan
13-3549 039-00729 Ergon Terminating, Inc; Hugheston Modification 03/08/2022 06/09/2022 Carney, Jonathan
13-3550 061-00269 Keyrock Environment, LLC; Burnette 3 BBH-134 Construction 03/10/2022 04/29/2022 Andrews, Ed
13-3551 029-00028 Highmark Terminals, LLC; Chester Construction 03/15/2022 06/21/2022 Andrews, Ed
13-3552 051-00322 McElroy Green Marketing, LLC; X-West Flare Construction 03/17/2022 06/03/2022 Andrews, Ed
13-3224A 103-00097 Equitrans LP; Corona Station Modification 03/18/2022 06/17/2022 Williams, Jerry
13-3553 081-00280 Keyrock Energy, LLC; Crab Orchard (At Affinity Mine Complex) Construction 04/04/2022 06/17/2022 Andrews, Ed
13-3554 081-00281 Keyrock Energy, LLC; Mabscott C-1 Borehole Construction 04/04/2022 06/23/2022 Andrews, Ed
13-3555 009-00141 Empire Green Generation, LLC; Follansbee Construction 04/11/2022 Andrews, Ed
13-3556 049-00215 Perennial CMM West Virginia, LLC; 5 Dents Run Road Construction 04/13/2022 06/21/2022 Kessler, Joe
13-3557 001-00051 Keyrock Energy, LLC; Borehole CQ-20 Construction 04/13/2022 07/08/2022 Kessler, Joe
13-3558 033-00181 Antero Midstream, LLC; Clarksburg Compressor Station Construction 04/22/2022 07/11/2022 Williams, Jerry
13-2371D 039-00481 Cooke & Pauley Funeral Home Inc. d.b.a. Cooke Funeral Home Modification 04/26/2022 Legg, John
13-2066E 109-00021 Columbia Gas Transmission, LLC; Huff Creek Compressor Station Modification 05/02/2022 08/04/2022 Williams, Jerry
13-2846A 109-00106 JM Industrial Services, LLC; Oak Hill Modification 05/05/2022 Pursley, Steve
13-3559 001-00142 Keyrock Energy, LLC; Borehole CQ-2 Construction 05/09/2022 07/08/2022 Andrews, Ed
13-3560 001-00143 Keyrock Energy, LLC; Borehole CQ-5 Construction 05/09/2022 07/08/2022 Andrews, Ed
13-3561 051-00261 Appalachia Midstream Services, LLC; Ridgeline Station Modification 05/11/2022 07/28/2022 Williams, Jerry
13-2127H 109-00017 Cranberry Pipeline Corporation; Bradley Station Modification 05/17/2022 08/01/2022 Williams, Jerry
13-3186D 057-00011 Alliant Techsystems Operations LLC, Allegany Ballistics Laboratory Modification 05/18/2022 07/18/2022 Andrews, Ed
13-3562 051-00221 SWN Production Company; Betty Schafer Pad Construction 05/26/2022 08/04/2022 Williams, Jerry
13-2065H 089-00004 Columbia Gas Transmission, LLC; Flat Top Compressor Station Modification 05/31/2022 Williams, Jerry
13-2585G 005-00020 Cranberry Pipeline Corporation; Danville Station Modification 06/01/2022 Williams, Jerry
13-3563 035-00082 Thunder Mountain Environmental Services LLC, West Virginia Plant (TMES) Construction 06/03/2022 Andrews, Ed
13-3564T 039-00743 Triton Construction, Inc.; WVDOH RHL Blvd Connector Construction 06/03/2022 Martin, Lee
13-3565 005-00107 Keyrock Energy LLC; AE Shaft 8 Construction 06/21/2022 Kessler, Joe
13-3566 049-00216 Sunshine Reclamation, Inc.; Hog Lick Quarry Construction 06/21/2022 Martin, Lee
13-3567 017-00032 Antero Midstream LLC; Pike Fork Compressor Station Construction 06/22/2022 Williams, Jerry
13-3221B 095-00014 Eastern Gas Transmission and Storage, Inc.; Bens Run Terminal Modification 06/28/2022 Pursley, Steve
Permit Number Facility ID Company Name; Location Permit Type Date Received Last Day to Comment Permit Writer
13-2156AJ 073-00003 Cytec Industries Inc.; Willow Island Plant Administrative-1 08/11/2021
Keatley, David
13-2518G 011-00037 Alcon Research, Ltd.; Huntington Administrative-2 09/15/2021
Legg, John
13-1477C 033-00015 Monongahela Power Company; Harrison Station Administrative-1 09/29/2021
Pursley, Steve
13-1512M 011-00045 Rust-Oleum Corporation; Lesage Facility Administrative-2 10/04/2021 Legg, John
13-2068X 061-00033 Mylan Pharmaceuticals, Inc.; Morgantown Facility Administrative-2 10/18/2021
Kessler, Joe
13-3207F 095-00039 CNX Midstream Operating Company LLC; Shirley Station Administrative-2 10/21/2021 Williams, Jerry
13-2914I 017-00034 MarkWest Liberty Midstream & Resources LLC;Sherwood Gas Plant Administrative-2 11/01/2021 Kessler, Joe
14-0007H 061-00027 Morgantown Energy Associates; Morgantown Plant Administrative-1 11/03/2021 Andrews, Ed
13-2164G 029-00017 The Fiesta Tableware Company; Newell Administrative-2 11/04/2021 Pursley, Steve
13-2104J 109-00013 Kepler Processing Company, LLC; Pineville/Pocahontas Administrative-2 11/05/2021 Kessler, Joe
13-1814I 099-00053 MarkWest Hydrocarbon, LLC; Kenova Natural Gas Liquids Extraction Facility Administrative-2 11/09/2021 Williams, Jerry
13-3394I 095-00087 Antero Midstream LLC; Middlebourne V Administrative-1 12/01/2021 Williams, Jerry
13-3366B 077-00108 Luke Massey Pet Cremation Service, L.L.C; Reedsville Administrative-1 12/23/2021 Legg, John
13-1863H 031-00010 Pilgrim's Pride Corporation of West Virginia, Inc., Moorefield Administrative-2 01/10/2022 Legg, John
13-3168E 051-00195 Williams Ohio Valley Midstream, Conner Compression Station Administrative-2 01/11/2022 Williams, Jerry
13-2654F 107-00182 The Chemours Company FC, LLC; Washington Works Administrative-1 1/11/2022 Carney, Jonathan
13-2623D 039-00536 NGK Spark Plugs (U.S.A.), Inc; Sissonville Administrative-1 02/01/2022 Legg, John
13-3032D 107-00100 Columbia Gas Transmission, LLC; Rockport Compressor Station Administrative-1 02/04/2022 Legg, John
13-3531A 009-00107 SWN Production Company, LLC; Mike Ryniawec Pad Administrative-2 02/08/2022 Williams, Jerry
13-1856D 099-00013 Columbia Gas Transmission, LLC; Ceredo Administrative-2 02/18/2022 Williams, Jerry
13-3106E 017-00060 Antero Midstream; New Milton Compressor Station Administrative-1 02/23/2022 Kees, Roy
13-2315G 083-00104 Greenfield Cabinetry, LLC; Elkins Administrative-1 03/09/2022 Legg, John
13-3516A 077-00107 Stone Asphalt, LLC; Reedsville Site Administrative-2 03/09/2022 Martin, Lee
13-3213B 079-00184 Multicoat Products, Inc.; Putnam County Administrative-2 03/16/2022 Legg, John
13-2151A 039-00466 Foster Supply, Inc; Sissonville Administrative-2 03/22/2022 Martin, Lee
13-2561N 039-00102 Covestro, LLC; South Charleston Administrative-2 03/31/2022 Legg, John
13-3516B 077-00107 Stone Asphalt, LLC; Reedsville Administrative-1 04/15/2022 Martin, Lee
13-3491B 069-00143 Appalachia Midstream Services, LLC; Pioneer Compressor Station Administrative-2 04/25/2022 Williams, Jerry
13-2338M 095-00001 MPM Silicones, LLC; Sistersville Administrative-1 04/28/2022 Legg, John
13-3088C 103-00068 EQT Production Company; BIG 57 Pad Administrative-2 05/04/2022 Williams, Jerry
14-0026P 003-00006 Argos USA LLC; Martinsburg Administrative-2 05/09/2022 Pursley, Steve
13-2914J 017-00034 MarkWest Liberty Midstream & Resources LLC; Sherwood Gas Plant Administrative-2 05/11/2022 Williams, Jerry
13-2093H 039-00663 Optima Belle, LLC; Belle Administrative-1 05/18/2022 Legg, John
13-3439A 051-00272 CNX Midstream Operating Company, LLC, Dry Ridge Station Administrative-1 05/19/2022 Williams, Jerry
13-3047B 017-00049 EQT Production Company, OXF-121 Pad Administrative-1 05/23/2022 Kees, Roy
13-2338N 095-00001 MPM Silicones, LLC; Sistersville Administrative-1 05/24/2022 Legg, John
14-0015O 003-00012 Knauf Insulation, LLC; Inwood Administrative-2 5/25/2022 Andrews, Ed
13-2818L 051-00125 MarkWest Liberty Midstream and Resources, L.L.C.; Majorsville Gas Plant Administrative-2 06/02/2022 Williams, Jerry
13-3210C 051-00166 Williams Ohio Valley Midstream LLC; Snyder Compressor Station Administrative-1 06/07/2022 Legg, John
13-3313B 017-00162 Columbia Gas Transmission, LLC, Sherwood Compressor Station Administrative-2 06/09/2022 Wiliams, Jerry
13-3455C 051-00286 EQT Chap LLC, Hicks Pad A Administrative-1 06/10/2022 Wiliams, Jerry
13-1244G 063-00001 Goodrich Corporation; Union Administrative-1 06/13/2022 Legg, John
13-3164D 083-00019 Columbia Gas Transmission, LLC; Files Creek Compressor Station Administrative-1 06/14/2022 Williams, Jerry
13-2394D 097-00009 Columbia Gas Transmission, LLC, Cleveland Compressor Station Administrative-1 6/17/2022 Williams, Jerry
13-2247C 039-00048 Columbia Gas Transmission, LLC, Clendenin Compressor Station Administrative-1 6/21/2022 Williams, Jerry
13-3513B 095-00119 Antero Midstream LLC; Castle Peak Compressor Station Administrative-2 06/22/2022 Williams, Jerry
13-3027B 103-00061 EQT Production Company, Nice Station Administrative-1 06/23/2022 Williams, Jerry
13-3285E 085-00055 Antero Midstream LLC; Lafferty Compressor Station Administrative-1 07/01/2022 Williams, Jerry
13-3285E 085-00055 Antero Midstream LLC; Lafferty Compressor Station Administrative-1 07/01/2022 Williams, Jerry
13-1823N 107-00182 The Chemours Company FC, LLC, Washington Works Administrative-1 07/01/2022 Carney, Jonathan


Permit Number Facility ID Company Name; Location Permit Type Date Received Last Day to Comment Permit Writer
G60-D088A 041-00080 Eastern Gas Transmission and Storage, Inc.; Southern Area Headquarters Relocation 08/11/2021
Rothwell, Tracy
13-3366A 077-00108 Luke Massey Pet Cremation Service, LLC; Reedsville Relocation 09/20/2021 Martin, Lee


Permit Number Facility ID Company Name; Location Permit Type Date Received Last Day to Comment Permit Writer


Permit Number Facility ID Company Name; Location Permit Type Date Received Last Day to Comment Permit Writer
G10-D186 047-00103  Bluestone Coal Corporation; Red Fox Preperation Plant Modification 02/16/2021
Roberts, Dan 
G10-D187 109-00185 Bluestone Coal Corporation; Keystone No.2 Prep Plant Modification 04/19/2021 Martin, Lee
G10-D095D 047-00110 Mid-Vol Coal Sales, Inc.; Eckman Prep Plant (XMV-44 Deep Mine) Modification 07/06/2021
Martin, Lee
G65-D587 069-00152 US Army Reserve, 99th RD; Ohio County Airport USARC Consruction 07/15/2021
Rothwell, Tracy
G40-C002D 055-00002 Appalachian Aggregates, LLC; Ingleside Quarry Modification 08/20/2021 Martin, Lee
G10-D153C 047-00145 Caretta Minerals, LLC; Caretta Prep Plant Modification 08/23/2021 Martin, Lee
G70-D474 095-00127 Antero Resources Corporation; Red Lady Well Pad Construction 08/30/2021 Kees, Roy
G35-D171 061-00263 EQM Gathering OPCO, LLC; ERP Compressor Station Construction 09/09/2021 Kees, Roy
G35-D139B 051-00264 XcL Midstream Operating, LLC; Payne Station Administrative-2 09/20/2021 Kees, Roy
G40-C082B 045-00149 Greenbrier Minerals, LLC; Toney Fork Modification 09/23/2021 Martin, Lee
G50-C110A 067-00116 The Wells Group, LLC; Summersville - Plant 137 Modification 09/24/2021 Martin, Lee
G70-D477 085-00072 Antero Resources Corporation; Cashew Well Pad Construction 09/24/2021 Kees, Roy
G10-D180B 045-00018 Bandmill Coal, LLC; Bandmill Prep Plant Modification 09/27/2021 Martin, Lee
G70-D390A 069-00114 SWN Production Company, LLC; George Gantzer Pad Modification 09/28/2021 Kees, Roy
G70-D478 069-00131 SWN Production Company, LLC; Chad Glauser Pad Modification 09/28/2021 Kees, Roy
G70-D037B 069-00137 SWN Production Company, LLC; Howard Shackleford Pad Modification 09/29/2021 Kees, Roy
G70-D479 017-00175 Antero Resources Corporation; Gaspar Well Pad Construction 10/04/2021 Kees, Roy
G70-D480 085-00073 Antero Resources Corporation; Weekley West Well Pad Construction 10/04/2021 Kees, Roy
G60-D110 023-00003 Virginia Electric & Power Co.; Mt. Storm Construction 10/08/2021 Rothwell, Tracy
G35-D116A 087-00030 Sycamore Midstream LLC; Windyville Modification 10/08/2021 Williams, Jerry
G70-D218A 051-00226 SWN Production Company, LLC; Craig Strope Pad Modification 10/11/2021 Kees, Roy
G70-D251B 051-00243 SWN Production Company, LLC; Mark Edison Pad Modification 10/11/2021 Kees, Roy
G35-D003A 059-00099 Diversified Midstream LLC; Muncy Station Modification 10/15/2021 Williams, Jerry
G35-D172 097-00079 Upshur Gas Gathering, LLC; Rock Cave CCS Construction 10/25/2021 Williams, Jerry
G70-D481 051-00320 Tug Hill Operating, LLC; Whistlepig Well Pad Construction 10/25/2021 Kees, Roy
G60-D111 061-00003 Greer Limestone Company; Greer Limestone Emergency Generator Construction 11/04/2021 Rothwell, Tracy
G60-D112 061-00009 Buckeye Stone Company; Buckeye Stone Company Emergency Generator Construction 11/04/2021 Rothwell, Tracy
G70-D482 103-00153 EQT Production Company; Prine Wellpad Construction 11/05/2021 Kees, Roy
G70-D483 103-00063 SWN Production (Ohio), LLC; Buffalo Run Pad Modification 11/05/2021 Kees, Roy
G70-D454A 033-00287 HG Energy II Appalachia, LLC; Antonio 1206 Engine Modification Modification 11/12/2021 Kees, Roy
G70-D217B 051-00154 SWN Production Company, LLC; O.E. Burge Well Pad Modification 11/17/2021 Kees, Roy
G10-D173B 081-00273 Republic Energy,LLC; Workman's Creek Modification 11/18/2021 Martin, Lee
G70-D148B 095-00059 Jay-Bee Oil & Gas, Inc.; Doc Wellpad Modification 11/29/2021 Kees, Roy
G70-D220B 051-00228 SWN Production Company, LLC; Robert Young Pad Modification 12/01/2021 Williams, Jerry
G70-D484 009-00140 SWN Production Company, LLC; Brian Teslovich Pad Construction 12/16/2021 Kees, Roy
G60-D113 039-00154 Columbia Gas Transmission, LLC; Charleston Headquarters Building Construction 12/17/2021 Rothwell, Tracy
G40-C129A 777-00172 J.F. Allen Company; Park Place Development Modification 12/20/2021 Martin, Lee
G70-D411A 095-00108 Antero Resources Corporation; Gamehenge East Modification 12/21/2021 Kees, Roy
G40-C131 029-00087 Hanson Aggregates Pennsylvania, LLC; Dry Run Quarry Construction 12/29/2021 Martin, Lee
G70-D485 061-00267 Northeast Natural Energy LLC; Phoenix Well Pad Construction 01/11/2022 Kees, Roy
G70-D486 017-00116 Jay-Bee Oil and Gas, Inc; Coffman Pad Modification 01/13/2022 Kees, Roy
G70-D487 017-00128 Jay-Bee Oil and Gas, Inc; Sneezy Pad Modification 01/13/2022 Kees, Roy
G35-D173 103-00154 Williams Ohio Valley Midstream LLC; Blue Racer Interconnect Construction 01/26/2022 Kees, Roy
G40-C109E 025-00114 Appalachian Aggregates, LLC; Lewisburg Plant Administrative-2 02/02/2022 Martin, Lee
G40-C002E 055-00002 Appalachian Aggregates, LLC; Ingleside Quarry Administrative-2 02/02/2022 Martin, Lee
G70-D488 069-00113 SWN Production Company, LLC, Alice Edge Pad Modification 02/10/2022 Kees, Roy
G70-D489 051-00321 Tug Hill Operating, LLC; Fitzgerald Well Pad Construction 02/14/2022 Kees, Roy
G20-C007E 003-00091 Jefferson Asphalt Products Company, Inc.; Inwood Plant #3 Administrative-2 02/14/2022 Martin, Lee
G50-C111B 777-00156 R.G. Johnson Company, Inc.; Concrete Batch Plant Relocation 02/15/2022 Martin, Lee
G10-D173C 081-00273 Republic Energy, LLC; Workman Creek Modification 02/18/2022 Martin, Lee
G70-D264A 095-00079 CNX Gas Compnay, LLC; Shirley 3/40 Production Facility Modification 02/18/2022 Kees, Roy
G50-C122 003-00285 Schuster Concrete Ready Mix LLC; Tabler Station Construction 02/25/2022 Martin, Lee
G10-D180C 045-00142 Bandmill Coal LLC, Bandmill Prep Plant Modification 02/28/2022 Martin, Lee
G40-C132 067-00119 Coal-Mac LLC; Fola Rock Crusher/Screening Plant Construction 03/04/2022 Martin, Lee
G10-D176B 001-00005 Wolf Run Mining, LLC; Sentinel Preparation Plant Modification 03/04/2022 Martin, Lee
G70-D490 049-00214 EQT Production Company; Elliott Wellpad Construction 03/07/2022 Kees, Roy
G70-D491 103-00155 Tribune Resources, LLC; Hoge Pad Construction 03/21/2011 Kees, Roy
G70-D457A 051-00310 Tug Hill Operating, LLC; Mitcher Wellpad Modification 03/24/2022 Kees, Roy
G60-D030B 095-00001 MPM Silicones, LLC; Friendly Modification 03/30/2022 Rothwell, Tracy
G40-C133 025-00133 South Fork Coal Company, LLC; Blue Knob Rock Crusher Construction 04/06/2022 Martin, Lee
G70-D370A 051-00277 SWN Production Company, LLC; Yocum Pad Modification 04/13/2022 Kees,Roy
G70-D492 041-00093 HG Eneergy II Appalachia, LLC; Flesher 1212 Construction 04/13/2022 Kees,Roy
G40-C134 051-00323 ADO Industries, Inc; Moundsville Construction 04/18/2022 Martin, Lee
G35-D174 035-00077 Pillar Energy, LLC; Main Line Compressor Construction 04/18/2022 Kees, Roy
G70-D493 073-00041 Jay-Bee Oil & Gas, Inc; P8 Well Pad Construction 04/19/2022 Kees, Roy
G70-D494 051-00248 Tug Hill Operating, LLC; Wayne Well Pad Construction 04/26/2022 Kees, Roy
G35-D025C 001-00011 Diversified Midstream, LLC; Coronado/Station 14 Modificaiton 04/26/2022 Kees, Roy
G35-D093A 051-00160 Williams Ohio Valley Midstream LLC; Whipkey Compressor Station Construction 04/27/2022 Kees, Roy
G70-D377A 073-00037 Jay-Bee Oil & Gas, Inc.; P7 Production Facility Modification 04/28/2022 Kees, Roy
G35-D175 109-00213 Diversified Produciton, LLC; Piney Land Station Modification 04/28/2022 Kees, Roy
G70-D157A 061-00217 Northeast Natural Energy LLC; Beach Wellpad Modification 05/03/2022 Kees, Roy
G70-D376A 073-00036 Jay-Bee Oil & Gas, Inc; P6 Production Facility Modification 05/03/2022 Kees, Roy
G10-D103L 045-00131 Greenbrier Minerals, LLC Modification 05/04/2022 Martin, Lee
G70-D175B 069-00115 SWN Production Company, LLC; Glenn Didriksen Pad Modification 05/11/2022 Kees, Roy
G70-D495 051-00324 Tug Hill Operating, LLC, McMasters Wellpad Construction 05/12/2022 Kees, Roy
G70-D321A 069-00110 SWN Production Company, LLC; Brian Dytko Pad Modification 05/12/2022 Kees, Roy
G10-D177A 099-00122 Cyrus River Terminal LLC; Sandy River Dock Modification 05/16/2022 Martin, Lee
G70-D496 091-00054 Arsenal Resources, LLC, Armstrong II Construction 05/18/2022 Kees, Roy
G35-D112B 109-00224 Diversified Midstream LLC, Berwind Main Station Modification 05/18/2022 Kees, Roy
G70-D497 051-00325 Tug Hill Operating, LLC; Addison Well Pad Construction 05/26/2022 Kees, Roy
G70-D498 051-00326 Tug Hill Operating, LLC; Armstrong Well Pad Construction 05/26/2022 Kees, Roy
G70-D499 051-00327 Tug Hill Operating, LLC; Hall Well Pad Construction 05/26/2022 Kees, Roy
G70-D500 051-00328 Tug Hill Operating, LLC; Hansen Well Pad Construction 05/26/2022 Kees, Roy
G70-D501 051-00329 Tug Hill Operating, LLC; Hendrickson Well Pad Construction 05/26/2022 Kees, Roy
G70-D502 051-00330 HG Energy II Appalachia, LLC; Moundsville 23 (MND 23) Construction 06/01/2022 Kees, Roy
G70-D503 051-00331 Tug Hill Operating, LLC; Hudson Well Pad Construction 06/06/2022 Kees, Roy
G70-D022A 069-00136 SWN Production Company, LLC; Carl Rotter Pad Modification 06/07/2022 Kees, Roy
G70-D386A 061-00249 Northeast Natural Energy, LLC; MEPCO Well Pad Modification 06/07/2022 Kees, Roy
G70-D504 051-00298 EQT CHAP, LLC; Longworth Pad Construction 06/09/2022 Kees, Roy
G35-D067H 091-00034 Arsenal Midstream LLC, East Comet Station Modification 06/14/2022 Kees, Roy
G70-D505 041-00097 HG Energy II Appalachia, LLC; Evans 1213 Construction 06/21/2022 Kees, Roy
G70-D210B 095-00070 Jay-Bee Oil & Gas, Inc., Dopey Well Pad Modification 06/21/2022 Kees, Roy
G70-D072A 095-00044 Antero Resources; Nalley Modification 06/23/2022 Kees, Roy
G35-D176 047-00134 Diversified Midstream LLC, Ashland Station Administrative-1 06/27/2022 Kees, Roy
G70-D269A 103-00122 SWN Production Company, LLC; Daniel Durig Pad Modification 06/27/2022 Kees, Roy
G35-D152A 005-00039 Columbia Gas Transmission, LLC, Horse Creek Compressor Station Administrative - 2 06/30/2022 Kees, Roy


Permit Number Facility ID Company Name; Location Permit Type Date Received Last Day to Comment Permit Writer
PD21-071 029-00028 Congo Corp.; Chester Determination 08/02/2021 Rothwell, Tracy
PD22-020 039-00692 ALTIVIA Services, LLC (ALTIVIA Ketones and Additives); Institute Plant Determination 02/24/2022 Pursley, Steve
PD22-021 039-00692 ALTIVIA Services, LLC (ALTIVIA Ketones and Additives); Institute Plant Determination 02/24/2022 Pursley, Steve
PD22-023 025-00128 Cellco Partnership dba Verizon Wireless Determination 03/11/2022 Rothwell, Tracy
PD22-024 109-00211 Diversified Production, LLC; Berwind Booster Determination 03/18/2022 Rothwell, Tracy
PD22-025 069-00150 CFOAM, LLC; Wickman Determination 03/23/2033 Rothwell, Tracy
PD22-026 097-00080 Novelis ALR Rolled Products, Inc; Buckhannon Determination 03/25/2022 Rothwell, Tracy
PD22-027 025-00129 Cellco Partnership dba Verizon Wireless; Knobs Determination 03/29/2022 Rothwell, Tracy
PD22-028 025-00130 Cellco Partnership dba Verizon Wireless; Keifer Determination 03/29/2022 Rothwell, Tracy
PD22-029 061-00227 CNX Gas Company, LLC; Hunting Hills Determination 03/30/2022 Rothwell, Tracy
PD22-030 087-00036 T-Mobile; WVJ0710A Gay Tower Determination 03/30/2022 Rothwell, Tracy
PD22-031 011-00237 T-Mobile; WVJ0727A Ona Tower Determination 03/30/2022 Rothwell, Tracy
PD22-032 079-00201 T-Mobile; WVJ0826A Poca Tower Determination 03/30/2022 Rothwell, Tracy
PD22-033 079-00202 T-Mobile; WVJ0829A Hurricane Tower Determination 03/30/2022 Rothwell, Tracy
PD22-034 079-00203 T-Mobile; WVJ0829A Hurricane Tower Determination 03/30/2022 Rothwell, Tracy
PD22-035 039-00730 T-Mobile; WVJ0876B Elkview Tower Determination 03/30/2022 Rothwell, Tracy
PD22-036 039-00731 T-Mobile; WVJ0880B Elkview #3 Tower Determination 03/30/2022 Rothwell, Tracy
PD22-037 011-00238 T-Mobile; WVJ0890A Milton Tower Determination 03/30/2022 Rothwell, Tracy
PD22-038 035-00078 T-Mobile; WVJ0709A Ripley Tower Determination 03/30/2022 Rothwell, Tracy
PD22-039 099-00137 T-Mobile; WVJ0707A Pritchard Tower Determination 03/30/2022 Rothwell, Tracy
PD22-040 039-00732 T-Mobile; WVJ0705A Institute Tower Determination 03/30/2022 Rothwell, Tracy
PD22-041 035-00079 T-Mobile; WVJ0703A Kenna Tower Determination 03/30/2022 Rothwell, Tracy
PD22-042 035-00080 T-Mobile; WVJ0699A Ripley-CC Tower Determination 03/30/2022 Rothwell, Tracy
PD22-043 087-00037 T-Mobile; WVJ0664A Looneyville Tower Determination 03/30/2022 Rothwell, Tracy
PD22-044 109-00221 Diversified Production, LLC; LC-231 Compressor Determination 03/31/2022 Kees, Roy
PD22-045 035-00005 Star Plastics, LLC; Ravenswood Determination 04/01/2022 Rothwell, Tracy
PD22-046 025-00131 Cellco Partnership d/b/a Verizon Wireless; Rainelle Determination 04/04/2022 Rothwell, Tracy
PD22-047 025-00132 Cellco Partnership d/b/a Verizon Wireless; Rupert Determination 04/04/2022 Rothwell, Tracy
PD22-048 063-00023 Cellco Partnership d/b/a Verizon Wireless; Koontz Determination 04/06/2022 Rothwell, Tracy
PD22-049 063-00024 Cellco Partnership d/b/a Verizon Wireless; Ballard Determination 04/06/2022 Rothwell, Tracy
PD22-050 063-00025 Cellco Partnership d/b/a Verizon Wireless; Lindside Determination 04/07/2022 Rothwell, Tracy
PD22-051 063-00026 Cellco Partnership d/b/a Verizon Wireless; Peterstown Determination 04/07/2022 Rothwell, Tracy
PD22-052 063-00025 Cellco Partnership d/b/a Verizon Wireless; Pickaway Determination 04/07/2022 Rothwell, Tracy
PD22-053 063-00026 Cellco Partnership d/b/a Verizon Wireless; Walnut Knob Determination 04/07/2022 Rothwell, Tracy
PD22-054 079-00204 Putman County 911; Confidence 911 Tower Determination 04/08/2022 Rothwell, Tracy
PD22-055 055-00151 Cellco Partnership d/b/a Verizon Wireless; Princeton Schools Determination 04/08/2022 Rothwell, Tracy
PD22-057 039-00692 Altivia Services, LLC; Institute Plant Determination 04/22/2022 Pursley, Steve
PD22-058 109-00228 Diversified Production; Rollins Branch Determination 05/05/2022 Williams, Jerry
PD22-059 039-00693 Belle Chemical Company, Belle Plant (Tank AM83) Determination 05/16/2022 Pursley, Steve
PD22-060 039-00693 Belle Chemical Company, Belle Plant (Tank DMF01) Determination 05/16/2022 Pursley, Steve
PD22-061 007-00004 Appalachian Timber Services, LLC; Sutton Determination 05/16/2022 Rothwell, Tracy
PD22-062 035-00043 Constellium Rolled Products Ravenswood, LLC; Ravenswood Determination 05/17/2022 Pursley, Steve
PD22-063 039-00692 Altivia Services, LLC, Institute Plant Determination 05/19/2022 Pursley, Steve
PD22-064 041-00094 RESCOM Environmental Corp./T-Mobile, A4J0264A Determination 05/24/2022 Rothwell, Tracy
PD22-065 041-00095 RESCOM Environmental Corp./T-Mobile Determination 05/24/2022 Rothwell, Tracy
PD22-066 017-00176 RESCOM Environmental Corp./T-Mobile Determination 05/24/2022 Rothwell, Tracy
PD22-067 061-00270 RESCOM Environmental Corp./T-Mobile, Determination 05/24/2022 Rothwell, Tracy
PD22-068 077-00114 RESCOM Environmental Corp./T-Mobile Determination 05/24/2022 Rothwell, Tracy
PD22-069 069-00153 RESCOM Environmental Corp./T-Mobile Determination 05/24/2022 Rothwell, Tracy
PD22-070 009-00142 RESCOM Environmental Corp./T-Mobile Determination 05/24/2022 Rothwell, Tracy
PD22-071 029-00088 RESCOM Environmental Corp./T-Mobile Determination 05/24/2022 Rothwell, Tracy
PD22-072 107-00205 RESCOM Environmental Corp./T-Mobile Determination 05/24/2022 Rothwell, Tracy
PD22-073 107-00206 RESCOM Environmental Corp./T-Mobile Determination 05/24/2022 Rothwell, Tracy
PD22-074 107-00207 RESCOM Environmental Corp./T-Mobile, Determination 05/24/2022 Rothwell, Tracy
PD22-075 053-00130 RESCOM Environmental Corp./T-Mobile, Determination 05/24/2022 Rothwell, Tracy
PD22-076 035-00081 RESCOM Environmental Corp./T-Mobile, Determination 05/24/2022 Rothwell, Tracy
PD22-077 053-00131 RESCOM Environmental Corp./T-Mobile, Determination 05/24/2022 Rothwell, Tracy
PD22-078 039-00735 RESCOM Environmental Corp./T-Mobile, Determination 05/24/2022 Rothwell, Tracy
PD22-079 005-00106 RESCOM Environmental Corp./T-Mobile, Determination 05/24/2022 Rothwell, Tracy
PD22-080 109-00245 RESCOM Environmental Corp./T-Mobile, Determination 05/24/2022 Rothwell, Tracy
PD22-081 087-00038 RESCOM Environmental Corp./T-Mobile, Determination 05/24/2022 Rothwell, Tracy
PD22-082 039-00736 RESCOM Environmental Corp./T-Mobile, Determination 05/24/2022 Rothwell, Tracy
PD22-083 039-00737 RESCOM Environmental Corp./T-Mobile, Determination 05/24/2022 Rothwell, Tracy
PD22-084 039-00738 RESCOM Environmental Corp./T-Mobile, Determination 05/24/2022 Rothwell, Tracy
PD22-085 099-00138 RESCOM Environmental Corp./T-Mobile, Determination 05/24/2022 Rothwell, Tracy
PD22-086 039-00739 RESCOM Environmental Corp./T-Mobile, Determination 05/24/2022 Rothwell, Tracy
PD22-087 011-00239 RESCOM Environmental Corp./T-Mobile, Determination 05/24/2022 Rothwell, Tracy
PD22-088 011-00240 RESCOM Environmental Corp./T-Mobile, Determination 05/24/2022 Rothwell, Tracy
PD22-089 045-00091 RESCOM Environmental Corp./T-Mobile, Determination 05/24/2022 Rothwell, Tracy
PD22-090 039-00740 RESCOM Environmental Corp./T-Mobile, Determination 05/24/2022 Rothwell, Tracy
PD22-091 039-00741 RESCOM Environmental Corp./T-Mobile, Determination 05/24/2022 Rothwell, Tracy
PD22-092 039-00742 RESCOM Environmental Corp./T-Mobile, Determination 05/24/2022 Rothwell, Tracy
PD22-093 041-00096 RESCOM Environmental Corp./T-Mobile, Determination 05/24/2022 Rothwell, Tracy
PD22-094 033-00291 Mountain V Oil & Gas, Inc.; Bridgeport Determination 06/07/2022 Rothwell, Tracy
PD22-095 081-00043 Klockner Pentaplast; Beaver Determination 06/07/2022 Pursley, Steve
PD22-096 039-00545 Mountain V Oil & Gas Inc., Godshall Station Determination 06/21/2022 Rothwell, Tracy
PD22-097 039-00102 Covestro LLC; South Charleston Determination 06/23/2022 Pursley, Steve
PD22-098 089-00044 WV Division of Emergency Management; Hinton 911 Tower Determination 06/30/2022 Rothwell, Tracy